Regional Weather Roundup
Issued by NWS

Home | Current Version | Previous Version | Text Only | Print | Product List | Glossary On
Versions: 1 2 3 4 5 6 7 8 9 10 11 12 13 14 15 16 17 18 19 20 21 22 23 24 25 26 27 28 29 30 31 32 33 34 35 36 37 38 39 40 41 42 43 44 45 46 47 48 49 50
000
ASUS43 KTOP 191508
RWRKS

WEATHER ROUNDUP FOR KANSAS
NATIONAL WEATHER SERVICE GOODLAND KS
1000 AM CDT SUN OCT 19 2014

NOTE:  "FAIR" INDICATES FEW OR NO CLOUDS BELOW 12,000 FEET WITH NO
SIGNIFICANT WEATHER AND/OR OBSTRUCTIONS TO VISIBILITY.

KSZ001>006-013>018-027>032-041>047-191600-
NORTHWEST KANSAS

CITY           SKY/WX    TMP DP  RH WIND       PRES   REMARKS
GOODLAND       SUNNY     51  44  77 W7        30.05S
HAYS           SUNNY     55  43  62 S16       30.08F
HILL CITY      SUNNY     55  44  66 S10       30.06S
RUSSELL        SUNNY     55  46  71 S18       30.08S
$$

KSZ061>065-074>080-084>089-191600-
SOUTHWEST KANSAS

CITY           SKY/WX    TMP DP  RH WIND       PRES   REMARKS
ELKHART          N/A     57  45  64 SW14        N/A
GARDEN CITY    SUNNY     57  43  59 S23G30    30.05S
GREAT BEND     SUNNY     55  45  67 S18       30.11S
LIBERAL        SUNNY     57  43  58 S20G26    30.11S
PRATT          MOSUNNY   54  43  66 S10       30.13S
$$

KSZ066>073-081>083-090>101-191600-
SOUTHEAST KANSAS

CITY           SKY/WX    TMP DP  RH WIND       PRES   REMARKS
CHANUTE        PTSUNNY   52  49  89 SE9       30.19S
COFFEYVILLE    PTSUNNY   53  49  86 S3        30.20R
HUTCHINSON     MOSUNNY   54  48  80 S9        30.15R
MEDICINE LODGE   N/A     54 N/A N/A S8        30.14S
NEWTON         MOSUNNY   55  45  67 S14       30.17S
PARSONS        PTSUNNY   54  49  83 S3        30.20S
WICHITA INTL   MOSUNNY   56  46  69 S12       30.16S
WICHITA JABRA  MOSUNNY   56  47  71 S9        30.16R
WICHITA MCCONL MOSUNNY   56  48  73 S8        30.17R
WINFIELD       SUNNY     56  49  77 S10       30.18S
$$

KSZ007>012-019>026-033>040-048>060-102>105-191600-
NORTHEAST KANSAS

CITY           SKY/WX    TMP DP  RH WIND       PRES   REMARKS
CONCORDIA      PTSUNNY   54  46  74 S16G28    30.10S
EMPORIA        MOSUNNY   52  47  83 S12       30.16F
LAWRENCE       SUNNY     51  45  79 S3        30.18S
MANHATTAN      PTSUNNY   57  47  69 SW12      30.13F
MARYSVILLE     MOSUNNY   52  46  82 S10       30.12S
OLATHE IND     SUNNY     53  45  74 S12       30.18F
OLATHE EXE     MOSUNNY   54  48  80 S8        30.17F
SALINA         SUNNY     55  48  77 S10       30.14S
TOPEKA BILLARD MOSUNNY   54  47  77 S8        30.17S
TOPEKA FORBES  MOSUNNY   54  48  80 S8        30.16F
$$



USA.gov is the U.S. government's official web portal to all federal, state and local government web resources and services.